Volver al catálogo

LOPEN

ActivoComunicacionesSSO
NORAD 60473·PAYLOAD·🇺🇸 United States

Lanzado Aug 16, 2024 desde Vandenberg Space Force Base

Loading…

Próximos Pases (próximas 24 horas)

TLE

ActualizadoSource: Space-Track

Época: Sep 13, 2026, 18:34 UTC

1 60473U 24149F   26256.77376258  .00012550  00000-0  29602-3 0  9991
2 60473  97.3731 340.9614 0000401  24.8432 335.2834 15.42033905115903

Sigue LOPEN en tiempo real con AllMySat

Download on the App Store